Lynchburg, VA

10:59 AM EST on November 18, 2019 (GMT -0500)
Lynchburg Regional-Glenn

Weather History for KLYH - September, 2019

Change the Weather History Date:

Monday, September 2, 2019

  Actual Average Record
Temperature  
Mean Temperature 77 °F 72 °F  
Max Temperature 91 °F 83 °F 100 °F (1932)
Min Temperature 63 °F 61 °F 48 °F (1934)
Degree Days  
Heating Degree Days 0 0  
Month to date heating degree days 0 0  
Since 1 July heating degree days 0 3  
Cooling Degree Days 12 7  
Month to date cooling degree days 25 14  
Year to date cooling degree days 1240 912  
Growing Degree Days 27 (Base 50)    
Moisture  
Dew Point 66 °F    
Average Humidity 83    
Maximum Humidity 100    
Minimum Humidity 38    
Precipitation  
Precipitation T in 0.13 in 1.86 in (1910)
Month to date precipitation T 0.26  
Year to date precipitation 27.58 28.19  
Snow  
Snow 0.00 in - - ()
Month to date snowfall 0.0  
Since 1 July snowfall 0.0  
Since 1 September snowfall 0.0  
Snow Depth 0.00 in    
Sea Level Pressure  
Sea Level Pressure 30.09 in    
Wind  
Wind Speed 2 mph ()    
Max Wind Speed 12 mph    
Max Gust Speed 14 mph    
Visibility 7.7 miles    
Events Fog , Rain    
T = Trace of Precipitation, MM = Missing Value Source: Averaged Metar Reports

Daily Weather History Graph

Daily Weather History Graph

Search for Another Location

Airport or City:

Astronomy

Sep. 02, 2019 Rise Set
Actual Time 6:47 AM EDT 7:44 PM EDT
Civil Twilight 6:21 AM EDT 8:11 PM EDT
Nautical Twilight 5:49 AM EDT 8:42 PM EDT
Astronomical Twilight 5:16 AM EDT 9:15 PM EDT
Moon 10:24 AM EDT (9/2) 10:10 PM EDT (9/2)
Length of Visible Light 13h 49m
Length of Day
12h 56m
Waxing Crescent, 15% of the Moon is Illuminated
Sep 2
Waxing Crescent
Sep 5
First Quarter
Sep 14
Full
Sep 21
Last Quarter
Sep 28
New

Hourly Weather History & Observations

Time (EDT) Temp. Heat Index Dew Point Humidity Pressure Visibility Wind Dir Wind Speed Gust Speed Precip Events Conditions
12:54 AM 71.1 °F - 66.0 °F 84% 30.14 in 10.0 mi SSE 3.5 mph - N/A   Partly Cloudy
1:54 AM 66.9 °F - 66.0 °F 97% 30.14 in 10.0 mi Calm Calm - N/A   Scattered Clouds
2:54 AM 66.0 °F - 64.9 °F 96% 30.12 in 10.0 mi Calm Calm - N/A   Clear
3:13 AM 66.9 °F - 66.0 °F 97% 30.14 in 10.0 mi Calm Calm - N/A   Mostly Cloudy
3:54 AM 68.0 °F - 66.9 °F 96% 30.11 in 10.0 mi Calm Calm - N/A   Mostly Cloudy
4:09 AM 66.9 °F - 64.9 °F 93% 30.13 in 10.0 mi Calm Calm - N/A   Scattered Clouds
4:30 AM 66.9 °F - 66.0 °F 97% 30.14 in 10.0 mi Calm Calm - N/A   Mostly Cloudy
4:54 AM 66.9 °F - 66.0 °F 97% 30.11 in 10.0 mi Calm Calm - N/A   Mostly Cloudy
5:04 AM 66.0 °F - 64.9 °F 96% 30.14 in 10.0 mi Calm Calm - N/A   Scattered Clouds
5:54 AM 64.9 °F - 64.9 °F 100% 30.11 in 8.0 mi Calm Calm - N/A   Scattered Clouds
6:54 AM 63.0 °F - 63.0 °F 100% 30.11 in 10.0 mi Calm Calm - N/A   Clear
7:01 AM 64.0 °F - 64.0 °F 100% 30.14 in 1.8 mi Calm Calm - N/A   Clear
7:08 AM 63.0 °F - 63.0 °F 100% 30.14 in 10.0 mi Calm Calm - N/A   Clear
7:45 AM 66.2 °F - 64.4 °F 94% 30.14 in 2.5 mi Calm Calm - N/A   Overcast
7:54 AM 66.9 °F - 66.0 °F 97% 30.12 in 2.0 mi Calm Calm - N/A   Overcast
8:01 AM 68.0 °F - 66.9 °F 96% 30.14 in 1.0 mi Calm Calm - N/A   Mostly Cloudy
8:10 AM 68.0 °F - 68.0 °F 100% 30.14 in 0.2 mi SSE 3.5 mph - N/A Fog Fog
8:52 AM 68.0 °F - 68.0 °F 100% 30.15 in 0.2 mi South 3.5 mph - N/A Fog Fog
8:54 AM 69.1 °F - 68.0 °F 96% 30.12 in 0.5 mi South 3.5 mph - N/A Fog Fog
9:05 AM 69.1 °F - 69.1 °F 100% 30.15 in 1.5 mi South 5.8 mph - N/A   Overcast
9:13 AM 69.1 °F - 68.0 °F 96% 30.15 in 1.0 mi South 5.8 mph - N/A   Overcast
9:54 AM 70.0 °F - 69.1 °F 97% 30.12 in 1.0 mi South 4.6 mph - N/A   Mostly Cloudy
10:01 AM 72.0 °F - 69.1 °F 91% 30.14 in 10.0 mi SSW 6.9 mph - N/A   Mostly Cloudy
10:19 AM 75.0 °F - 69.1 °F 82% 30.13 in 10.0 mi SSW 5.8 mph - N/A   Scattered Clouds
10:54 AM 78.1 °F - 68.0 °F 71% 30.10 in 10.0 mi WSW 4.6 mph - N/A   Mostly Cloudy
11:09 AM 77.0 °F - 66.9 °F 71% 30.13 in 10.0 mi SW 5.8 mph - N/A   Mostly Cloudy
11:54 AM 81.0 °F 83.8 °F 68.0 °F 65% 30.08 in 10.0 mi Variable 4.6 mph - N/A   Mostly Cloudy
12:54 PM 84.0 °F 86.5 °F 66.9 °F 56% 30.06 in 10.0 mi SW 4.6 mph - N/A   Scattered Clouds
1:54 PM 86.0 °F 88.2 °F 66.0 °F 51% 30.04 in 10.0 mi Calm Calm - N/A   Scattered Clouds
2:54 PM 89.1 °F 89.3 °F 62.1 °F 40% 30.00 in 10.0 mi South 8.1 mph - N/A   Clear
3:54 PM 89.1 °F 89.0 °F 61.0 °F 39% 29.99 in 10.0 mi Variable 4.6 mph - N/A   Clear
4:54 PM 84.9 °F 86.1 °F 64.0 °F 49% 29.98 in 10.0 mi WSW 3.5 mph - 0.00 in Rain Light Rain
5:54 PM 88.0 °F 88.4 °F 62.1 °F 42% 29.96 in 10.0 mi Calm Calm - 0.00 in   Clear
6:54 PM 82.9 °F 85.8 °F 68.0 °F 60% 29.97 in 10.0 mi Calm Calm - N/A   Clear
7:54 PM 78.1 °F - 66.0 °F 66% 29.98 in 10.0 mi WNW 3.5 mph - N/A   Mostly Cloudy
8:54 PM 77.0 °F - 68.0 °F 74% 29.99 in 10.0 mi Calm Calm - N/A   Overcast
9:54 PM 77.0 °F - 68.0 °F 74% 30.00 in 10.0 mi Calm Calm - N/A   Overcast
10:54 PM 72.0 °F - 68.0 °F 87% 30.01 in 10.0 mi Calm Calm - N/A   Scattered Clouds
11:54 PM 71.1 °F - 68.0 °F 90% 30.01 in 10.0 mi NW 3.5 mph - N/A   Partly Cloudy